Weather History for Valparaiso, FL

Change the Weather History Date:

Friday, October 5, 2012

  Actual Average Record
Temperature  
Mean Temperature 74 °F -  
Max Temperature 82 °F 84 °F 93 °F (1971)
Min Temperature 67 °F 56 °F 39 °F (1987)
Cooling Degree Days 10    
Growing Degree Days 24 (Base 50)    
Moisture  
Dew Point 70 °F    
Average Humidity 88    
Maximum Humidity 96    
Minimum Humidity 71    
Precipitation  
Precipitation 0.00 in - - ()
Sea Level Pressure  
Sea Level Pressure 30.09 in    
Wind  
Wind Speed 4 mph (NE)    
Max Wind Speed 7 mph    
Max Gust Speed -    
Visibility 10 miles    
Events Rain    
Averages and records for this station are not official NWS values.
T = Trace of Precipitation, MM = Missing Value Source: NWS Daily Summary

Daily Weather History Graph

Daily Weather History Graph

Search for Another Location

Airport:

Trip Planner

Search our weather history database for the weather conditions in past years. The results will help you decide how hot, cold, wet, or windy it might be!

Date:

Astronomy

Oct. 05, 2012 Rise Set
Actual Time 6:42 AM CDT 6:25 PM CDT
Civil Twilight 6:18 AM CDT 6:49 PM CDT
Nautical Twilight 5:50 AM CDT 7:17 PM CDT
Astronomical Twilight 5:22 AM CDT 7:45 PM CDT
Moon 10:07 PM CDT (10/5) 11:30 AM CDT (10/5)
Length of Visible Light 12h 31m
Length of Day
11h 43m
Waning Gibbous, 74% of the Moon is Illuminated
Oct 5
Waning Gibbous
Oct 8
Last Quarter
Oct 15
New
Oct 21
First Quarter
Oct 29
Full

Hourly Weather History & Observations

Time (CDT) Temp. Heat Index Dew Point Humidity Pressure Visibility Wind Dir Wind Speed Gust Speed Precip Events Conditions
12:57 AM 71.1 °F - 69.1 °F 93% 30.15 in 6.0 mi North 3.5 mph - N/A   Mostly Cloudy
1:58 AM 69.6 °F - 68.2 °F 95% 30.14 in 10.0 mi North 4.6 mph - N/A   Overcast
2:58 AM 69.1 °F - 68.0 °F 96% 30.13 in 10.0 mi North 3.5 mph - N/A   Overcast
3:49 AM 69.8 °F - 68.0 °F 94% 30.11 in 10.0 mi NNW 3.5 mph - N/A   Mostly Cloudy
3:58 AM 69.8 °F - 68.4 °F 95% 30.12 in 6.0 mi North 3.5 mph - N/A   Mostly Cloudy
4:56 AM 69.1 °F - 68.0 °F 96% 30.12 in 6.0 mi North 4.6 mph - N/A   Overcast
5:57 AM 68.5 °F - 67.3 °F 96% 30.13 in 5.0 mi North 3.5 mph - N/A   Overcast
6:57 AM 67.6 °F - 66.6 °F 96% 30.13 in 10.0 mi NNE 4.6 mph - N/A   Mostly Cloudy
7:56 AM 68.7 °F - 67.3 °F 95% 30.13 in 10.0 mi NE 4.6 mph - N/A   Overcast
8:20 AM 69.8 °F - 68.0 °F 94% 30.12 in 10.0 mi NNE 5.8 mph - N/A   Mostly Cloudy
8:55 AM 71.4 °F - 69.4 °F 93% 30.14 in 10.0 mi NNE 4.6 mph - N/A   Mostly Cloudy
9:08 AM 71.6 °F - 69.8 °F 94% 30.13 in 10.0 mi NNE 5.8 mph - N/A   Overcast
9:55 AM 73.2 °F - 70.0 °F 90% 30.14 in 10.0 mi North 4.6 mph - N/A   Overcast
10:13 AM 73.4 °F - 69.8 °F 88% 30.13 in 10.0 mi NNE 5.8 mph - N/A   Overcast
10:22 AM 73.4 °F - 69.8 °F 88% 30.13 in 10.0 mi NNE 6.9 mph - N/A   Overcast
10:50 AM 75.2 °F - 69.8 °F 83% 30.13 in 10.0 mi NE 4.6 mph - N/A Rain Light Rain
10:55 AM 74.7 °F - 70.7 °F 87% 30.14 in 10.0 mi NE 4.6 mph - 0.00 in Rain Light Rain
11:13 AM 75.2 °F - 69.8 °F 83% 30.13 in 10.0 mi NE 4.6 mph - N/A   Mostly Cloudy
11:32 AM 75.2 °F - 71.6 °F 89% 30.12 in 10.0 mi ENE 3.5 mph - N/A Rain Light Rain
11:49 AM 75.2 °F - 71.6 °F 89% 30.12 in 10.0 mi ENE 3.5 mph - N/A   Mostly Cloudy
11:55 AM 75.2 °F - 71.6 °F 89% 30.12 in 10.0 mi Calm Calm - 0.00 in   Mostly Cloudy
12:55 PM 78.1 °F - 71.2 °F 79% 30.10 in 10.0 mi ENE 6.9 mph - N/A   Mostly Cloudy
1:55 PM 80.2 °F 83.9 °F 71.2 °F 74% 30.06 in 10.0 mi NE 6.9 mph - N/A   Mostly Cloudy
2:55 PM 80.6 °F 84.6 °F 71.6 °F 74% 30.03 in 10.0 mi East 3.5 mph - N/A   Mostly Cloudy
3:55 PM 82.2 °F 87.1 °F 72.0 °F 71% 30.02 in 10.0 mi ENE 4.6 mph - N/A   Mostly Cloudy
4:55 PM 81.3 °F 85.8 °F 71.8 °F 73% 30.01 in 10.0 mi South 3.5 mph - N/A   Mostly Cloudy
5:57 PM 79.5 °F - 71.8 °F 77% 30.01 in 10.0 mi SSE 6.9 mph - N/A   Mostly Cloudy
6:55 PM 77.5 °F - 72.1 °F 83% 30.01 in 10.0 mi Calm Calm - N/A   Scattered Clouds
7:57 PM 75.6 °F - 72.0 °F 89% 30.02 in 10.0 mi NNE 2.3 mph - N/A   Partly Cloudy
8:55 PM 74.3 °F - 71.2 °F 90% 30.03 in 10.0 mi North 2.3 mph - N/A   Partly Cloudy
9:56 PM 75.4 °F - 71.4 °F 87% 30.04 in 10.0 mi East 2.3 mph - N/A   Partly Cloudy
10:56 PM 74.7 °F - 71.6 °F 90% 30.04 in 10.0 mi East 3.5 mph - N/A   Partly Cloudy
11:55 PM 72.7 °F - 70.2 °F 92% 30.03 in 10.0 mi NNE 3.5 mph - N/A   Partly Cloudy